Location: Zagreb
(45.8000°N, 16.0000°E)
Time: 07:52:11
(UTC+02:00)

Altair - Pass Details

Date: 22 July 2024
Orbit: 1501 x 1682 km, 47.2° (Epoch: 12 May)

Event Time Altitude Azimuth Distance (km) Brightness Sun altitude
Rises 18:32:59 0° 232° (SW) 4,747 10.7 19.3°
Reaches altitude 10° 18:36:07 10° 229° (SW) 3,741 10.2 18.7°
Maximum altitude 18:45:23 65° 151° (SSE) 1,650 7.8 17.2°
Drops below altitude 10° 18:54:25 10° 72° (ENE) 3,659 9.0 15.6°
Sets 18:57:27 0° 70° (ENE) 4,638 9.5 15.1°
